Terminal Aerodrome Forecast
Issued by NWS Spokane, WA

Home | Current Version | Previous Version | Text Only | Print | Product List | Glossary On
Versions: 1 2 3 4 5 6 7 8 9 10 11 12 13 14 15 16 17 18 19 20 21 22 23 24 25 26 27 28 29 30 31 32
548
FTUS46 KOTX 101350 AAA
TAFEAT
TAF AMD
KEAT 101350Z 1014/1112 33003KT 6SM PRFG FEW001 BKN200
     FM101700 VRB02KT P6SM BKN120 BKN200
     FM110700 VRB02KT P6SM SCT010 BKN035=

USA.gov is the U.S. government's official web portal to all federal, state and local government web resources and services.